TimeEDT,TemperatureF,Dew PointF,Humidity,Sea Level PressureIn,VisibilityMPH,Wind Direction,Wind SpeedMPH,Gust SpeedMPH,PrecipitationIn,Events,Conditions,WindDirDegrees,DateUTC
12:53 AM,72.0,61.0,68,30.13,10.0,NE,12.7,-,N/A,,Partly Cloudy,40,2011-11-02 04:53:00
1:53 AM,72.0,61.0,68,30.12,10.0,NE,11.5,18.4,N/A,,Scattered Clouds,40,2011-11-02 05:53:00
2:53 AM,72.0,61.0,68,30.11,10.0,NE,12.7,19.6,N/A,,Clear,40,2011-11-02 06:53:00
3:53 AM,71.1,61.0,70,30.11,10.0,NE,8.1,-,N/A,,Partly Cloudy,50,2011-11-02 07:53:00
4:53 AM,72.0,61.0,68,30.12,10.0,NE,9.2,-,N/A,,Mostly Cloudy,40,2011-11-02 08:53:00
5:53 AM,72.0,61.0,68,30.13,10.0,NE,9.2,-,N/A,,Overcast,40,2011-11-02 09:53:00
6:53 AM,71.1,61.0,70,30.14,10.0,NE,8.1,-,N/A,,Mostly Cloudy,50,2011-11-02 10:53:00
7:53 AM,71.1,61.0,70,30.15,10.0,NE,9.2,-,N/A,,Clear,50,2011-11-02 11:53:00
8:53 AM,73.0,61.0,66,30.17,10.0,NE,11.5,-,N/A,,Scattered Clouds,50,2011-11-02 12:53:00
9:53 AM,75.9,60.1,58,30.18,10.0,NE,12.7,-,N/A,,Clear,50,2011-11-02 13:53:00
10:53 AM,77.0,59.0,54,30.18,10.0,NE,13.8,-,N/A,,Partly Cloudy,50,2011-11-02 14:53:00
11:53 AM,77.0,59.0,54,30.19,10.0,ENE,9.2,-,N/A,,Clear,60,2011-11-02 15:53:00
12:53 PM,78.1,59.0,52,30.17,10.0,ENE,13.8,19.6,N/A,,Clear,60,2011-11-02 16:53:00
1:53 PM,78.1,57.0,48,30.15,10.0,ENE,13.8,-,N/A,,Clear,60,2011-11-02 17:53:00
2:53 PM,79.0,57.0,47,30.13,10.0,ENE,15.0,-,N/A,,Partly Cloudy,60,2011-11-02 18:53:00
3:53 PM,78.1,57.9,50,30.13,10.0,NE,10.4,-,N/A,,Clear,50,2011-11-02 19:53:00
4:53 PM,77.0,59.0,54,30.12,10.0,NE,12.7,-,N/A,,Clear,40,2011-11-02 20:53:00
5:53 PM,75.0,62.1,64,30.12,10.0,NE,10.4,-,N/A,,Overcast,50,2011-11-02 21:53:00
6:53 PM,72.0,64.0,76,30.12,10.0,NE,8.1,-,0.01,Rain,Light Rain,40,2011-11-02 22:53:00
7:53 PM,73.0,63.0,71,30.13,10.0,ENE,8.1,-,0.00,,Partly Cloudy,60,2011-11-02 23:53:00
8:53 PM,73.0,62.1,68,30.13,10.0,ENE,9.2,-,N/A,,Mostly Cloudy,60,2011-11-03 00:53:00
9:53 PM,73.0,63.0,71,30.13,10.0,ENE,9.2,-,N/A,,Partly Cloudy,60,2011-11-03 01:53:00
10:53 PM,73.0,62.1,68,30.13,10.0,ENE,10.4,-,N/A,,Clear,60,2011-11-03 02:53:00
11:53 PM,72.0,62.1,71,30.13,10.0,ENE,5.8,-,N/A,,Clear,60,2011-11-03 03:53:00